When you browse on this site, cookies collect data to enhance your experience and personalize the content and advertising you see.
Visit our Privacy Policy to learn more. By continuing to use the site, you agree to this use of cookies and data.
  • In Netherlands
  • List of Countries
  • For 7 days
  • Water Temperature
  • Weather Map
  • Weather Widgets
  • user-avatar
    Login

    Hourly Weather Veliko Tarnovo

    Today, 22 August, Thursday

    Time Temperature Precipitation Wind Pressure Humidity
    00:00 +23°C° 0 mm 1 mps 741 mmHg 54%
    01:00 +23°C° 0 mm 1 mps 741 mmHg 55%
    02:00 +22°C° 0 mm 1 mps 741 mmHg 54%
    03:00 +22°C° 0 mm 1 mps 741 mmHg 55%
    04:00 +22°C° 0 mm 1 mps 741 mmHg 56%
    05:00 +21°C° 0 mm 1 mps 741 mmHg 56%
    06:00 +23°C° 0 mm 1 mps 741 mmHg 52%
    07:00 +25°C° 0 mm 1 mps 742 mmHg 47%
    08:00 +27°C° 0 mm 1 mps 742 mmHg 43%
    09:00 +29°C° 0 mm 2 mps 742 mmHg 39%
    10:00 +31°C° 0 mm 2 mps 742 mmHg 35%
    11:00 +33°C° 0 mm 3 mps 742 mmHg 31%
    12:00 +34°C° 0 mm 3 mps 742 mmHg 29%
    13:00 +35°C° 0 mm 3 mps 742 mmHg 28%
    14:00 +36°C° 0 mm 4 mps 742 mmHg 27%
    15:00 +36°C° 0 mm 4 mps 741 mmHg 28%
    16:00 +35°C° 0 mm 4 mps 741 mmHg 30%
    17:00 +35°C° 0 mm 4 mps 741 mmHg 32%
    18:00 +33°C° 0 mm 3 mps 741 mmHg 35%
    19:00 +29°C° 0 mm 3 mps 741 mmHg 39%
    20:00 +27°C° 0 mm 2 mps 742 mmHg 42%
    21:00 +26°C° 0 mm 2 mps 742 mmHg 45%
    22:00 +25°C° 0 mm 2 mps 742 mmHg 47%
    23:00 +24°C° 0 mm 2 mps 742 mmHg 49%

    Tomorrow, 23 August, Friday

    Time Temperature Precipitation Wind Pressure Humidity
    00:00 +24°C° 0 mm 1 mps 742 mmHg 52%
    01:00 +23°C° 0 mm 1 mps 742 mmHg 56%
    02:00 +22°C° 0 mm 1 mps 742 mmHg 59%
    03:00 +21°C° 0 mm 1 mps 742 mmHg 63%
    04:00 +21°C° 0 mm 1 mps 742 mmHg 67%
    05:00 +20°C° 0 mm 1 mps 742 mmHg 72%
    06:00 +22°C° 0 mm 1 mps 742 mmHg 68%
    07:00 +23°C° 0 mm 1 mps 743 mmHg 64%
    08:00 +25°C° 0 mm 1 mps 743 mmHg 61%
    09:00 +27°C° 0 mm 2 mps 743 mmHg 55%
    10:00 +29°C° 0 mm 2 mps 743 mmHg 49%
    11:00 +31°C° 0 mm 2 mps 743 mmHg 43%
    12:00 +33°C° 0 mm 3 mps 743 mmHg 38%
    13:00 +35°C° 0 mm 4 mps 742 mmHg 33%
    14:00 +36°C° 0 mm 4 mps 742 mmHg 28%
    15:00 +36°C° 0 mm 4 mps 742 mmHg 29%
    16:00 +35°C° 0 mm 4 mps 741 mmHg 31%
    17:00 +35°C° 0 mm 4 mps 741 mmHg 32%
    18:00 +33°C° 0 mm 4 mps 741 mmHg 37%
    19:00 +30°C° 0 mm 3 mps 741 mmHg 43%
    20:00 +28°C° 0 mm 2 mps 742 mmHg 48%
    21:00 +27°C° 0 mm 2 mps 742 mmHg 50%
    22:00 +27°C° 0 mm 1 mps 742 mmHg 52%
    23:00 +26°C° 0 mm 1 mps 742 mmHg 54%

    Day after tomorrow, 24 August, Saturday

    Time Temperature Precipitation Wind Pressure Humidity
    00:00 +25°C° 0 mm 1 mps 742 mmHg 56%
    01:00 +25°C° 0 mm 1 mps 742 mmHg 58%
    02:00 +24°C° 0 mm 1 mps 742 mmHg 60%
    03:00 +23°C° 0 mm 1 mps 742 mmHg 62%
    04:00 +23°C° 0 mm 1 mps 742 mmHg 64%
    05:00 +22°C° 0 mm 1 mps 742 mmHg 66%
    06:00 +24°C° 0 mm 1 mps 742 mmHg 62%
    07:00 +26°C° 0 mm 1 mps 742 mmHg 58%
    08:00 +27°C° 0 mm 1 mps 743 mmHg 54%
    09:00 +29°C° 0 mm 2 mps 743 mmHg 49%
    10:00 +31°C° 0 mm 3 mps 743 mmHg 44%
    11:00 +34°C° 0 mm 4 mps 743 mmHg 39%
    12:00 +34°C° 0 mm 3 mps 742 mmHg 38%
    13:00 +34°C° 0 mm 3 mps 742 mmHg 37%
    14:00 +34°C° 0 mm 3 mps 742 mmHg 36%
    15:00 +34°C° 0 mm 3 mps 741 mmHg 36%
    16:00 +34°C° 0 mm 2 mps 741 mmHg 35%
    17:00 +34°C° 0 mm 2 mps 741 mmHg 34%
    18:00 +31°C° 0 mm 2 mps 741 mmHg 41%
    19:00 +29°C° 0 mm 2 mps 741 mmHg 47%
    20:00 +27°C° 0 mm 2 mps 741 mmHg 53%
    21:00 +26°C° 0 mm 2 mps 741 mmHg 56%
    22:00 +25°C° 0 mm 2 mps 741 mmHg 60%
    23:00 +24°C° 0 mm 1 mps 742 mmHg 63%

    25 August, Sunday

    Time Temperature Precipitation Wind Pressure Humidity
    00:00 +23°C° 0 mm 1 mps 741 mmHg 64%
    01:00 +23°C° 0 mm 1 mps 741 mmHg 64%
    02:00 +22°C° 0 mm 1 mps 741 mmHg 65%
    03:00 +22°C° 0 mm 1 mps 741 mmHg 66%
    04:00 +21°C° 0 mm 1 mps 741 mmHg 67%
    05:00 +21°C° 0 mm 1 mps 741 mmHg 68%
    06:00 +23°C° 0 mm 1 mps 741 mmHg 63%
    07:00 +24°C° 0 mm 1 mps 741 mmHg 58%
    08:00 +26°C° 0 mm 1 mps 741 mmHg 53%
    09:00 +28°C° 0 mm 2 mps 741 mmHg 48%
    10:00 +30°C° 0 mm 3 mps 741 mmHg 42%
    11:00 +33°C° 0 mm 3 mps 741 mmHg 37%
    12:00 +34°C° 0 mm 3 mps 741 mmHg 33%
    13:00 +35°C° 0 mm 3 mps 740 mmHg 30%
    14:00 +36°C° 0 mm 3 mps 740 mmHg 27%
    15:00 +36°C° 0 mm 3 mps 740 mmHg 29%
    16:00 +35°C° 0 mm 3 mps 739 mmHg 31%
    17:00 +34°C° 0 mm 3 mps 739 mmHg 33%
    18:00 +31°C° 0 mm 3 mps 739 mmHg 38%
    19:00 +30°C° 0 mm 3 mps 740 mmHg 43%
    20:00 +28°C° 0 mm 2 mps 740 mmHg 48%
    21:00 +27°C° 0 mm 2 mps 740 mmHg 52%
    22:00 +26°C° 0 mm 2 mps 740 mmHg 56%
    23:00 +25°C° 0 mm 1 mps 741 mmHg 60%

    26 August, Monday

    Time Temperature Precipitation Wind Pressure Humidity
    00:00 +24°C° 0 mm 1 mps 741 mmHg 63%
    01:00 +23°C° 0 mm 1 mps 740 mmHg 66%
    02:00 +23°C° 0 mm 1 mps 740 mmHg 69%
    03:00 +22°C° 0 mm 1 mps 740 mmHg 71%
    04:00 +21°C° 0 mm 1 mps 740 mmHg 73%
    05:00 +21°C° 0 mm 1 mps 740 mmHg 74%
    06:00 +23°C° 0 mm 1 mps 741 mmHg 68%
    07:00 +25°C° 0 mm 1 mps 741 mmHg 61%
    08:00 +26°C° 0 mm 1 mps 741 mmHg 55%
    09:00 +28°C° 0 mm 2 mps 741 mmHg 49%
    10:00 +31°C° 0 mm 2 mps 742 mmHg 43%
    11:00 +34°C° 0 mm 3 mps 742 mmHg 37%
    12:00 +34°C° 0 mm 2 mps 741 mmHg 35%
    13:00 +34°C° 0 mm 2 mps 741 mmHg 33%
    14:00 +35°C° 0 mm 2 mps 741 mmHg 32%
    15:00 +34°C° 0 mm 2 mps 740 mmHg 33%
    16:00 +32°C° 0 mm 2 mps 740 mmHg 35%
    17:00 +31°C° 0 mm 3 mps 740 mmHg 36%
    18:00 +30°C° 0 mm 2 mps 740 mmHg 39%
    19:00 +29°C° 0 mm 2 mps 740 mmHg 42%
    20:00 +27°C° 0 mm 1 mps 740 mmHg 45%
    21:00 +27°C° 0 mm 1 mps 741 mmHg 47%
    22:00 +26°C° 0 mm 1 mps 741 mmHg 49%
    23:00 +26°C° 0 mm 1 mps 741 mmHg 51%

    27 August, Tuesday

    Time Temperature Precipitation Wind Pressure Humidity
    00:00 +25°C° 0 mm 1 mps 741 mmHg 54%
    01:00 +24°C° 0 mm 1 mps 741 mmHg 56%
    02:00 +23°C° 0 mm 1 mps 741 mmHg 59%
    03:00 +23°C° 0 mm 1 mps 741 mmHg 61%
    04:00 +22°C° 0 mm 1 mps 741 mmHg 63%
    05:00 +22°C° 0 mm 1 mps 741 mmHg 65%
    06:00 +23°C° 0 mm 1 mps 741 mmHg 60%
    07:00 +25°C° 0 mm 1 mps 741 mmHg 55%
    08:00 +27°C° 0 mm 1 mps 742 mmHg 49%
    09:00 +29°C° 0 mm 2 mps 742 mmHg 43%
    10:00 +31°C° 0 mm 3 mps 742 mmHg 38%
    11:00 +33°C° 0 mm 3 mps 742 mmHg 32%
    12:00 +34°C° 0 mm 3 mps 741 mmHg 29%
    13:00 +35°C° 0 mm 3 mps 741 mmHg 27%
    14:00 +36°C° 0 mm 3 mps 741 mmHg 24%
    15:00 +35°C° 0 mm 3 mps 740 mmHg 27%
    16:00 +34°C° 0 mm 3 mps 740 mmHg 29%
    17:00 +33°C° 0 mm 3 mps 740 mmHg 31%
    18:00 +30°C° 0 mm 3 mps 740 mmHg 36%
    19:00 +28°C° 0 mm 3 mps 740 mmHg 41%
    20:00 +26°C° 0 mm 2 mps 740 mmHg 46%
    21:00 +25°C° 0 mm 2 mps 740 mmHg 49%
    22:00 +24°C° 0 mm 2 mps 740 mmHg 53%
    23:00 +23°C° 0 mm 2 mps 741 mmHg 56%
    Show more